DateTimeUTC,F1_A11,F1_S11,BsB_S11,BsG_S11,BsR_S11,BbsB_S11,BbsG_S11,BbsR_S11,BaB_A11,BaG_A11,BaR_A11,Tu_S11,T_S11,Uu_S11,U_S11,P_S11,T1_A11
2021-03-29T17:00:00Z,00000200,21000000,,,,,,,0000.96,0000.49,0000.24,18.4,25.5,,00.0,0644.4,31.0
2021-03-29T17:01:00Z,00000200,21000000,,,,,,,0000.82,0001.24,0000.77,18.3,25.5,,00.0,0644.4,30.9
2021-03-29T17:02:00Z,00000200,21000000,,,,,,,0000.71,0000.27,0000.49,18.3,25.5,,00.0,0644.4,30.9
2021-03-29T17:03:00Z,00000200,61000000,,,,,,,0001.81,0001.70,0001.00,18.3,25.5,,00.0,0644.4,31.0
2021-03-29T17:04:00Z,00000200,41000000,0000.21,-000.02,-000.15,0000.16,0000.19,-000.07,0000.59,0000.78,0000.63,18.3,25.3,00.1,00.1,0645.2,31.0
2021-03-29T17:05:00Z,00000200,01000000,0000.30,0000.28,-000.19,-000.02,0000.06,0000.05,0000.30,0000.44,0000.22,18.3,25.2,00.2,00.1,0645.3,31.0
2021-03-29T17:06:00Z,00000200,01000000,0000.63,0000.13,0000.10,0000.34,0000.12,-000.06,-000.88,-001.43,-001.21,18.3,25.2,00.2,00.1,0645.3,31.0
2021-03-29T17:07:00Z,00000200,01000000,0000.13,0000.24,0000.01,-000.20,0000.27,0000.09,-000.38,0000.21,0000.28,18.3,25.2,00.1,00.0,0645.4,31.0
2021-03-29T17:08:00Z,00000200,01000000,-000.52,0000.09,-000.20,-000.11,0000.22,-000.18,-000.47,-000.53,-000.37,18.3,25.2,00.0,00.0,0645.4,31.0
2021-03-29T17:09:00Z,00000200,01000000,0000.11,-000.06,-000.07,-000.02,0000.10,0000.15,-000.26,-000.63,-000.21,18.3,25.2,00.0,00.0,0645.4,31.0
2021-03-29T17:10:00Z,00000200,01000000,0000.00,-000.05,-000.19,0000.03,-000.04,-000.03,-001.14,-000.99,-000.84,18.3,25.2,00.0,00.0,0645.4,31.0
2021-03-29T17:11:00Z,00000200,01000000,-000.18,0000.13,-000.23,0000.53,0000.19,-000.10,-000.18,-000.10,-000.19,18.3,25.2,,00.0,0645.5,31.0
2021-03-29T17:12:00Z,00000200,01000000,-000.14,0000.16,0000.10,-000.34,0000.14,0000.08,0000.47,0000.10,0000.33,18.3,25.2,,00.0,0645.5,31.0
2021-03-29T17:13:00Z,00000200,01010000,0000.64,0000.24,0000.03,0000.12,0000.28,0000.10,-001.34,-000.53,-000.26,18.3,25.1,,00.0,0645.5,31.0
2021-03-29T17:14:00Z,00000200,01000000,0000.34,0000.35,0000.15,-000.33,0000.23,0000.20,-000.02,-000.13,-000.21,18.3,25.1,,00.0,0645.5,31.0
2021-03-29T17:15:00Z,00000200,01000000,-000.46,0000.28,-000.07,-000.68,0000.13,-000.05,0000.76,0000.39,0000.19,18.3,25.1,,00.0,0645.5,31.0
2021-03-29T17:16:00Z,00000200,01000000,-000.35,-000.01,0000.07,0000.37,0000.24,-000.07,0001.74,0001.67,0001.14,18.3,25.1,,00.0,0645.5,31.0
2021-03-29T17:17:00Z,00000200,01000000,0000.12,0000.20,0000.30,0000.31,0000.15,0000.04,0000.53,0000.21,0000.40,18.3,25.1,00.0,00.0,0645.5,31.0
2021-03-29T17:18:00Z,00000200,01000000,0000.24,0000.09,-000.02,0000.21,0000.32,0000.19,0000.18,0000.39,0000.17,18.3,25.1,00.1,00.0,0645.5,31.0
2021-03-29T17:19:00Z,00000200,01000000,-000.01,0000.05,0000.13,0000.11,0000.19,-000.24,0000.47,0000.42,0000.28,18.3,25.1,00.0,00.0,0645.5,31.0
2021-03-29T17:20:00Z,00000200,01000000,-000.15,-000.06,-000.02,0000.28,0000.38,0000.13,0001.02,0000.80,0000.74,18.3,25.1,00.1,00.1,0645.5,31.0
2021-03-29T17:21:00Z,00000200,01000000,-000.22,0000.32,-000.02,-000.04,0000.20,0000.02,0000.25,0000.79,0000.06,18.3,25.0,00.3,00.2,0645.5,31.0
2021-03-29T17:22:00Z,00000200,01000000,0000.67,0000.02,-000.12,-000.16,0000.22,0000.19,0000.48,0000.01,0000.23,18.3,25.1,00.4,00.3,0645.4,31.0
2021-03-29T17:23:00Z,00000200,01000000,0000.24,0000.08,0000.13,-000.45,0000.06,0000.16,0000.67,0000.28,0000.37,18.3,25.0,00.5,00.3,0645.4,31.0
2021-03-29T17:24:00Z,00000200,01000000,-000.34,0000.06,-000.16,-000.08,0000.22,-000.05,0000.30,0000.66,0000.42,18.3,25.0,00.6,00.4,0645.4,31.0
2021-03-29T17:25:00Z,00000200,01000000,-000.12,0000.07,-000.01,0001.07,0000.06,0000.09,0000.28,-000.01,0000.21,18.3,25.0,00.7,00.5,0645.4,31.0
2021-03-29T17:26:00Z,00000200,01000000,0000.40,-000.05,-000.05,0000.12,0000.09,0000.08,0000.10,0000.18,-000.05,18.3,25.0,00.9,00.6,0645.4,31.0
2021-03-29T17:27:00Z,00000200,01000000,-000.19,0000.01,0000.20,-000.00,0000.24,0000.05,0000.23,0000.20,0000.09,18.4,25.0,00.8,00.5,0645.4,31.0
2021-03-29T17:28:00Z,00000200,01000000,0000.09,0000.10,0000.05,-000.28,0000.12,0000.17,0000.60,0000.75,0000.76,18.4,25.0,00.8,00.6,0645.4,31.0
2021-03-29T17:29:00Z,00000200,01000000,-000.16,0000.13,-000.06,-000.04,0000.26,0000.11,0000.88,0000.75,0000.33,18.4,25.0,01.1,00.7,0645.4,31.0
2021-03-29T17:30:00Z,00000200,01000000,-000.42,-000.31,-000.15,-000.24,0000.06,-000.15,0000.80,0000.66,0000.50,18.4,25.0,01.4,00.9,0645.4,31.0
2021-03-29T17:31:00Z,00000200,01000000,0000.51,0000.15,-000.12,0000.25,0000.32,0000.05,0000.89,0001.05,0000.68,18.4,25.0,01.6,01.0,0645.4,31.0
2021-03-29T17:32:00Z,00000200,01000000,0000.40,0000.10,-000.26,-000.17,0000.07,-000.30,0000.32,-000.10,0000.15,18.4,25.0,01.7,01.2,0645.4,31.0
2021-03-29T17:33:00Z,00000200,01000000,-000.27,0000.10,0000.12,0000.21,0000.29,-000.20,0000.15,-000.33,-000.36,18.4,25.0,01.7,01.1,0645.5,31.0
2021-03-29T17:34:00Z,00000200,01000000,0000.15,0000.15,-000.25,-000.28,0000.22,0000.02,0000.13,0000.74,0000.81,18.4,25.0,01.9,01.2,0645.5,31.0
2021-03-29T17:35:00Z,00000200,01000000,-000.19,0000.22,-000.11,0000.08,-000.14,0000.01,0000.39,0000.67,0000.21,18.4,25.0,01.9,01.3,0645.5,31.0
2021-03-29T17:36:00Z,00000200,00000000,-000.12,0000.38,0000.06,-000.13,0000.28,-000.10,0000.37,-000.00,-000.18,18.3,25.0,02.1,01.4,0645.5,31.0
2021-03-29T17:37:00Z,00000200,00000000,0000.28,0000.10,-000.12,-000.03,0000.33,-000.01,0000.34,0000.26,0000.43,18.3,25.0,02.2,01.4,0645.5,31.0
2021-03-29T17:38:00Z,00000200,00000000,-000.50,0000.08,0000.05,0000.08,0000.21,-000.04,-000.26,-000.23,-000.02,18.3,25.0,02.1,01.4,0645.5,31.0
2021-03-29T17:39:00Z,00000200,00000000,0000.04,0000.00,0000.01,-000.12,0000.03,0000.04,-000.01,0000.01,-000.01,18.3,25.0,02.0,01.3,0645.5,31.0
2021-03-29T17:40:00Z,00000200,00000000,-000.06,0000.17,0000.06,0000.13,0000.24,-000.04,0000.17,-000.23,0000.06,18.3,25.0,02.0,01.4,0645.6,31.0
2021-03-29T17:41:00Z,00000200,00000000,-000.07,-000.08,-000.07,-000.25,0000.18,0000.09,-000.09,0000.27,-000.09,18.3,25.0,01.9,01.3,0645.6,31.0
2021-03-29T17:42:00Z,00000200,00000000,0000.47,-000.29,-000.02,-000.43,0000.20,0000.03,0000.40,0000.29,0000.01,18.3,25.0,01.9,01.3,0645.6,31.0
2021-03-29T17:43:00Z,00000200,00000000,0000.74,0000.12,-000.10,0000.09,0000.30,0000.05,-000.08,0000.03,0000.19,18.3,25.0,02.0,01.3,0645.6,31.0
2021-03-29T17:44:00Z,00000200,00000000,0000.17,-000.04,-000.03,-000.14,0000.21,0000.14,-000.29,-000.09,-000.04,18.3,25.0,01.9,01.3,0645.6,31.0
2021-03-29T17:45:00Z,00000200,00000000,0000.84,0000.14,0000.03,0000.17,0000.13,-000.07,-000.14,-000.41,-000.20,18.3,25.0,01.8,01.2,0645.6,31.0
2021-03-29T17:46:00Z,00000200,01000000,0000.75,0000.41,-000.09,-000.08,0000.30,-000.16,0000.05,-000.12,-000.12,18.3,25.0,01.8,01.2,0645.6,31.0
2021-03-29T17:47:00Z,00000200,01000000,-000.31,0000.06,-000.14,0000.29,0000.34,0000.01,-000.29,-000.50,0000.10,18.3,25.0,01.7,01.1,0645.7,31.0
2021-03-29T17:48:00Z,00000200,01000000,0000.02,0000.13,-000.12,0000.25,0000.38,0000.06,-001.10,-000.12,-000.78,18.3,25.0,01.5,01.0,0645.7,31.0
2021-03-29T17:49:00Z,00000200,01000000,0000.23,-000.08,-000.26,0000.05,0000.30,-000.14,-000.50,-000.67,-000.04,18.3,25.0,01.3,00.8,0645.7,31.0
2021-03-29T17:50:00Z,00000200,01000000,0000.07,0000.10,-000.11,0000.32,0000.02,0000.27,-000.39,-000.49,-000.68,18.3,25.0,01.2,00.8,0645.7,31.0
2021-03-29T17:51:00Z,00000200,01000000,0000.04,0000.08,-000.09,0000.14,0000.29,-000.07,-000.45,-000.30,0000.01,18.3,25.0,01.0,00.6,0645.8,31.0
2021-03-29T17:52:00Z,00000200,01000000,0000.39,0000.00,0000.11,0000.01,0000.41,-000.06,0000.48,0000.51,0000.14,18.3,25.0,00.8,00.5,0645.8,31.0
2021-03-29T17:53:00Z,00000200,01000000,-000.57,0000.29,0000.12,0000.25,0000.13,-000.07,-000.24,-000.20,-000.05,18.3,25.0,00.8,00.5,0645.8,31.0
2021-03-29T17:54:00Z,00000200,01000000,0000.35,0000.16,-000.10,0000.03,0000.03,-000.03,0000.05,0000.10,-000.04,18.3,25.0,00.8,00.5,0645.8,31.0
2021-03-29T17:55:00Z,00000200,01000000,0000.07,-000.09,-000.05,0000.22,0000.11,-000.11,-000.13,0000.20,0000.07,18.3,25.0,00.8,00.5,0645.8,31.0
2021-03-29T17:56:00Z,00000200,01000000,-000.08,0000.17,-000.20,-000.24,0000.07,-000.01,-000.23,-000.41,-000.25,18.3,25.0,00.7,00.4,0645.8,31.0
2021-03-29T17:57:00Z,00000200,41000000,,,,,,,-000.08,-000.21,-000.05,18.4,25.0,00.9,00.6,0645.8,31.0
2021-03-29T17:58:00Z,00000200,61000000,,,,,,,0000.35,0000.31,-000.10,18.1,25.1,00.3,00.2,0644.9,31.0
2021-03-29T17:59:00Z,00000200,21000000,,,,,,,-000.12,0000.21,0000.72,18.1,25.2,00.3,00.2,0644.9,31.0
